Year,Month,Day,Hour,Minute,Value (Times are PST for temperature in C)
2017,09,03,00,00,19.10
2017,09,03,00,01,19.10
2017,09,03,00,02,19.00
2017,09,03,00,03,18.90
2017,09,03,00,04,18.90
2017,09,03,00,05,18.80
2017,09,03,00,06,18.80
2017,09,03,00,07,18.80
2017,09,03,00,08,18.70
2017,09,03,00,09,18.70
2017,09,03,00,10,18.60
2017,09,03,00,11,18.60
2017,09,03,00,12,18.50
2017,09,03,00,13,18.50
2017,09,03,00,14,18.40
2017,09,03,00,15,18.40
2017,09,03,00,16,18.40
2017,09,03,00,17,18.40
2017,09,03,00,18,18.30
2017,09,03,00,19,18.30
2017,09,03,00,20,18.30
2017,09,03,00,21,18.30
2017,09,03,00,22,18.30
2017,09,03,00,23,18.20
2017,09,03,00,24,18.20
2017,09,03,00,25,18.20
2017,09,03,00,26,18.20
2017,09,03,00,27,18.20
2017,09,03,00,28,18.30
2017,09,03,00,29,18.30
2017,09,03,00,30,18.30
2017,09,03,00,31,18.40
2017,09,03,00,32,18.40
2017,09,03,00,33,18.40
2017,09,03,00,34,18.40
2017,09,03,00,35,18.40
2017,09,03,00,36,18.40
2017,09,03,00,37,18.40
2017,09,03,00,38,18.40
2017,09,03,00,39,18.40
2017,09,03,00,40,18.40
2017,09,03,00,41,18.30
2017,09,03,00,42,18.30
2017,09,03,00,43,18.30
2017,09,03,00,44,18.30
2017,09,03,00,45,18.30
2017,09,03,00,46,18.40
2017,09,03,00,47,18.40
2017,09,03,00,48,18.40
2017,09,03,00,49,18.40
2017,09,03,00,50,18.40
2017,09,03,00,51,18.50
2017,09,03,00,52,18.40
2017,09,03,00,53,18.40
2017,09,03,00,54,18.50
2017,09,03,00,55,18.50
2017,09,03,00,56,18.50
2017,09,03,00,57,18.60
2017,09,03,00,58,18.60
2017,09,03,00,59,18.60
2017,09,03,01,00,18.60
2017,09,03,01,01,18.60
2017,09,03,01,02,18.60
2017,09,03,01,03,18.60
2017,09,03,01,04,18.60
2017,09,03,01,05,18.60
2017,09,03,01,06,18.60
2017,09,03,01,07,18.70
2017,09,03,01,08,18.70
2017,09,03,01,09,18.80
2017,09,03,01,10,18.80
2017,09,03,01,11,18.80
2017,09,03,01,12,18.80
2017,09,03,01,13,18.90
2017,09,03,01,14,18.90
2017,09,03,01,15,18.90
2017,09,03,01,16,18.90
2017,09,03,01,17,18.90
2017,09,03,01,18,18.80
2017,09,03,01,19,18.80
2017,09,03,01,20,18.80
2017,09,03,01,21,18.70
2017,09,03,01,22,18.70
2017,09,03,01,23,18.60
2017,09,03,01,24,18.60
2017,09,03,01,25,18.60
2017,09,03,01,26,18.50
2017,09,03,01,27,18.50
2017,09,03,01,28,18.50
2017,09,03,01,29,18.60
2017,09,03,01,30,18.60
2017,09,03,01,31,18.60
2017,09,03,01,32,18.70
2017,09,03,01,33,18.80
2017,09,03,01,34,18.80
2017,09,03,01,35,18.80
2017,09,03,01,36,18.80
2017,09,03,01,37,18.90
2017,09,03,01,38,18.90
2017,09,03,01,39,19.00
2017,09,03,01,40,19.00
2017,09,03,01,41,19.00
2017,09,03,01,42,19.00
2017,09,03,01,43,19.00
2017,09,03,01,44,19.00
2017,09,03,01,45,19.00
2017,09,03,01,46,19.00
2017,09,03,01,47,18.90
2017,09,03,01,48,18.90
2017,09,03,01,49,18.90
2017,09,03,01,50,18.90
2017,09,03,01,51,18.80
2017,09,03,01,52,18.80
2017,09,03,01,53,18.80
2017,09,03,01,54,18.70
2017,09,03,01,55,18.70
2017,09,03,01,56,18.60
2017,09,03,01,57,18.50
2017,09,03,01,58,18.40
2017,09,03,01,59,18.30
2017,09,03,02,00,18.30
2017,09,03,02,01,18.20
2017,09,03,02,02,18.20
2017,09,03,02,03,18.10
2017,09,03,02,04,18.10
2017,09,03,02,05,18.00
2017,09,03,02,06,18.00
2017,09,03,02,07,18.00
2017,09,03,02,08,18.00
2017,09,03,02,09,18.00
2017,09,03,02,10,18.10
2017,09,03,02,11,18.10
2017,09,03,02,12,18.10
2017,09,03,02,13,18.10
2017,09,03,02,14,18.10
2017,09,03,02,15,18.10
2017,09,03,02,16,18.10
2017,09,03,02,17,18.00
2017,09,03,02,18,18.00
2017,09,03,02,19,18.00
2017,09,03,02,20,17.90
2017,09,03,02,21,17.90
2017,09,03,02,22,17.90
2017,09,03,02,23,17.90
2017,09,03,02,24,17.90
2017,09,03,02,25,17.90
2017,09,03,02,26,17.90
2017,09,03,02,27,17.80
2017,09,03,02,28,17.80
2017,09,03,02,29,17.80
2017,09,03,02,30,17.80
2017,09,03,02,31,17.80
2017,09,03,02,32,17.70
2017,09,03,02,33,17.70
2017,09,03,02,34,17.70
2017,09,03,02,35,17.70
2017,09,03,02,36,17.80
2017,09,03,02,37,17.80
2017,09,03,02,38,17.90
2017,09,03,02,39,17.90
2017,09,03,02,40,17.90
2017,09,03,02,41,17.90
2017,09,03,02,42,17.90
2017,09,03,02,43,17.90
2017,09,03,02,44,17.90
2017,09,03,02,45,18.00
2017,09,03,02,46,18.00
2017,09,03,02,47,18.00
2017,09,03,02,48,18.00
2017,09,03,02,49,18.00
2017,09,03,02,50,18.00
2017,09,03,02,51,18.00
2017,09,03,02,52,18.00
2017,09,03,02,53,18.00
2017,09,03,02,54,18.00
2017,09,03,02,55,18.00
2017,09,03,02,56,18.00
2017,09,03,02,57,18.00
2017,09,03,02,58,18.00
2017,09,03,02,59,17.90
2017,09,03,03,00,17.90
2017,09,03,03,01,17.90
2017,09,03,03,02,17.90
2017,09,03,03,03,17.90
2017,09,03,03,04,18.00
2017,09,03,03,05,18.00
2017,09,03,03,06,18.00
2017,09,03,03,07,18.00
2017,09,03,03,08,18.00
2017,09,03,03,09,18.00
2017,09,03,03,10,18.00
2017,09,03,03,11,18.00
2017,09,03,03,12,18.00
2017,09,03,03,13,18.00
2017,09,03,03,14,18.00
2017,09,03,03,15,18.00
2017,09,03,03,16,18.00
2017,09,03,03,17,18.00
2017,09,03,03,18,18.00
2017,09,03,03,19,17.90
2017,09,03,03,20,18.00
2017,09,03,03,21,18.00
2017,09,03,03,22,18.00
2017,09,03,03,23,18.10
2017,09,03,03,24,18.10
2017,09,03,03,25,18.20
2017,09,03,03,26,18.30
2017,09,03,03,27,18.30
2017,09,03,03,28,18.30
2017,09,03,03,29,18.30
2017,09,03,03,30,18.30
2017,09,03,03,31,18.20
2017,09,03,03,32,18.20
2017,09,03,03,33,18.10
2017,09,03,03,34,18.10
2017,09,03,03,35,18.00
2017,09,03,03,36,18.00
2017,09,03,03,37,17.90
2017,09,03,03,38,17.90
2017,09,03,03,39,17.90
2017,09,03,03,40,18.00
2017,09,03,03,41,18.00
2017,09,03,03,42,18.00
2017,09,03,03,43,18.00
2017,09,03,03,44,18.00
2017,09,03,03,45,18.10
2017,09,03,03,46,18.10
2017,09,03,03,47,18.10
2017,09,03,03,48,18.20
2017,09,03,03,49,18.20
2017,09,03,03,50,18.20
2017,09,03,03,51,18.20
2017,09,03,03,52,18.20
2017,09,03,03,53,18.30
2017,09,03,03,54,18.30
2017,09,03,03,55,18.30
2017,09,03,03,56,18.30
2017,09,03,03,57,18.30
2017,09,03,03,58,18.30
2017,09,03,03,59,18.30
2017,09,03,04,00,18.30
2017,09,03,04,01,18.30
2017,09,03,04,02,18.40
2017,09,03,04,03,18.40
2017,09,03,04,04,18.40
2017,09,03,04,05,18.40
2017,09,03,04,06,18.40
2017,09,03,04,07,18.30
2017,09,03,04,08,18.30
2017,09,03,04,09,18.30
2017,09,03,04,10,18.20
2017,09,03,04,11,18.10
2017,09,03,04,12,18.10
2017,09,03,04,13,18.00
2017,09,03,04,14,18.00
2017,09,03,04,15,18.00
2017,09,03,04,16,17.90
2017,09,03,04,17,17.90
2017,09,03,04,18,17.90
2017,09,03,04,19,17.90
2017,09,03,04,20,17.90
2017,09,03,04,21,17.90
2017,09,03,04,22,18.00
2017,09,03,04,23,18.00
2017,09,03,04,24,18.00
2017,09,03,04,25,18.10
2017,09,03,04,26,18.10
2017,09,03,04,27,18.20
2017,09,03,04,28,18.20
2017,09,03,04,29,18.30
2017,09,03,04,30,18.30
2017,09,03,04,31,18.40
2017,09,03,04,32,18.40
2017,09,03,04,33,18.40
2017,09,03,04,34,18.40
2017,09,03,04,35,18.30
2017,09,03,04,36,18.30
2017,09,03,04,37,18.30
2017,09,03,04,38,18.20
2017,09,03,04,39,18.20
2017,09,03,04,40,18.20
2017,09,03,04,41,18.20
2017,09,03,04,42,18.30
2017,09,03,04,43,18.30
2017,09,03,04,44,18.30
2017,09,03,04,45,18.20
2017,09,03,04,46,18.20
2017,09,03,04,47,18.20
2017,09,03,04,48,18.20
2017,09,03,04,49,18.20
2017,09,03,04,50,18.10
2017,09,03,04,51,18.10
2017,09,03,04,52,18.10
2017,09,03,04,53,18.10
2017,09,03,04,54,18.10
2017,09,03,04,55,18.10
2017,09,03,04,56,18.10
2017,09,03,04,57,18.10
2017,09,03,04,58,18.00
2017,09,03,04,59,18.00
2017,09,03,05,00,17.90
2017,09,03,05,01,17.90
2017,09,03,05,02,17.90
2017,09,03,05,03,17.90
2017,09,03,05,04,17.90
2017,09,03,05,05,17.90
2017,09,03,05,06,17.90
2017,09,03,05,07,17.90
2017,09,03,05,08,17.80
2017,09,03,05,09,17.80
2017,09,03,05,10,17.80
2017,09,03,05,11,17.80
2017,09,03,05,12,17.80
2017,09,03,05,13,17.80
2017,09,03,05,14,17.80
2017,09,03,05,15,17.80
2017,09,03,05,16,17.80
2017,09,03,05,17,17.70
2017,09,03,05,18,17.70
2017,09,03,05,19,17.70
2017,09,03,05,20,17.70
2017,09,03,05,21,17.70
2017,09,03,05,22,17.70
2017,09,03,05,23,17.70
2017,09,03,05,24,17.70
2017,09,03,05,25,17.70
2017,09,03,05,26,17.70
2017,09,03,05,27,17.70
2017,09,03,05,28,17.70
2017,09,03,05,29,17.70
2017,09,03,05,30,17.60
2017,09,03,05,31,17.60
2017,09,03,05,32,17.60
2017,09,03,05,33,17.60
2017,09,03,05,34,17.60
2017,09,03,05,35,17.60
2017,09,03,05,36,17.60
2017,09,03,05,37,17.60
2017,09,03,05,38,17.60
2017,09,03,05,39,17.50
2017,09,03,05,40,17.50
2017,09,03,05,41,17.50
2017,09,03,05,42,17.50
2017,09,03,05,43,17.40
2017,09,03,05,44,17.40
2017,09,03,05,45,17.40
2017,09,03,05,46,17.40
2017,09,03,05,47,17.40
2017,09,03,05,48,17.30
2017,09,03,05,49,17.30
2017,09,03,05,50,17.30
2017,09,03,05,51,17.30
2017,09,03,05,52,17.30
2017,09,03,05,53,17.30
2017,09,03,05,54,17.30
2017,09,03,05,55,17.30
2017,09,03,05,56,17.30
2017,09,03,05,57,17.30
2017,09,03,05,58,17.30
2017,09,03,05,59,17.30
2017,09,03,06,00,17.30
2017,09,03,06,01,17.30
2017,09,03,06,02,17.30
2017,09,03,06,03,17.30
2017,09,03,06,04,17.40
2017,09,03,06,05,17.40
2017,09,03,06,06,17.40
2017,09,03,06,07,17.40
2017,09,03,06,08,17.40
2017,09,03,06,09,17.50
2017,09,03,06,10,17.50
2017,09,03,06,11,17.50
2017,09,03,06,12,17.50
2017,09,03,06,13,17.50
2017,09,03,06,14,17.50
2017,09,03,06,15,17.50
2017,09,03,06,16,17.60
2017,09,03,06,17,17.60
2017,09,03,06,18,17.60
2017,09,03,06,19,17.60
2017,09,03,06,20,17.60
2017,09,03,06,21,17.60
2017,09,03,06,22,17.60
2017,09,03,06,23,17.70
2017,09,03,06,24,17.70
2017,09,03,06,25,17.70
2017,09,03,06,26,17.70
2017,09,03,06,27,17.60
2017,09,03,06,28,17.60
2017,09,03,06,29,17.60
2017,09,03,06,30,17.60
2017,09,03,06,31,17.50
2017,09,03,06,32,17.50
2017,09,03,06,33,17.40
2017,09,03,06,34,17.40
2017,09,03,06,35,17.40
2017,09,03,06,36,17.40
2017,09,03,06,37,17.40
2017,09,03,06,38,17.40
2017,09,03,06,39,17.40
2017,09,03,06,40,17.40
2017,09,03,06,41,17.40
2017,09,03,06,42,17.40
2017,09,03,06,43,17.40
2017,09,03,06,44,17.40
2017,09,03,06,45,17.40
2017,09,03,06,46,17.30
2017,09,03,06,47,17.30
2017,09,03,06,48,17.30
2017,09,03,06,49,17.30
2017,09,03,06,50,17.20
2017,09,03,06,51,17.20
2017,09,03,06,52,17.20
2017,09,03,06,53,17.20
2017,09,03,06,54,17.20
2017,09,03,06,55,17.30
2017,09,03,06,56,17.30
2017,09,03,06,57,17.30
2017,09,03,06,58,17.30
2017,09,03,06,59,17.40
2017,09,03,07,00,17.40
2017,09,03,07,01,17.40
2017,09,03,07,02,17.50
2017,09,03,07,03,17.50
2017,09,03,07,04,17.50
2017,09,03,07,05,17.50
2017,09,03,07,06,17.50
2017,09,03,07,07,17.50
2017,09,03,07,08,17.50
2017,09,03,07,09,17.60
2017,09,03,07,10,17.60
2017,09,03,07,11,17.60
2017,09,03,07,12,17.70
2017,09,03,07,13,17.70
2017,09,03,07,14,17.70
2017,09,03,07,15,17.80
2017,09,03,07,16,17.80
2017,09,03,07,17,17.80
2017,09,03,07,18,17.80
2017,09,03,07,19,17.80
2017,09,03,07,20,17.80
2017,09,03,07,21,17.80
2017,09,03,07,22,17.80
2017,09,03,07,23,17.80
2017,09,03,07,24,17.90
2017,09,03,07,25,17.90
2017,09,03,07,26,17.90
2017,09,03,07,27,18.00
2017,09,03,07,28,18.00
2017,09,03,07,29,18.00
2017,09,03,07,30,18.10
2017,09,03,07,31,18.20
2017,09,03,07,32,18.30
2017,09,03,07,33,18.40
2017,09,03,07,34,18.50
2017,09,03,07,35,18.60
2017,09,03,07,36,18.70
2017,09,03,07,37,18.80
2017,09,03,07,38,18.90
2017,09,03,07,39,18.90
2017,09,03,07,40,19.00
2017,09,03,07,41,19.00
2017,09,03,07,42,19.10
2017,09,03,07,43,19.10
2017,09,03,07,44,19.20
2017,09,03,07,45,19.20
2017,09,03,07,46,19.30
2017,09,03,07,47,19.30
2017,09,03,07,48,19.30
2017,09,03,07,49,19.30
2017,09,03,07,50,19.40
2017,09,03,07,51,19.40
2017,09,03,07,52,19.50
2017,09,03,07,53,19.50
2017,09,03,07,54,19.60
2017,09,03,07,55,19.70
2017,09,03,07,56,19.80
2017,09,03,07,57,19.90
2017,09,03,07,58,20.00
2017,09,03,07,59,20.10
2017,09,03,08,00,20.30
2017,09,03,08,01,20.40
2017,09,03,08,02,20.60
2017,09,03,08,03,20.80
2017,09,03,08,04,20.90
2017,09,03,08,05,21.10
2017,09,03,08,06,21.20
2017,09,03,08,07,21.20
2017,09,03,08,08,21.30
2017,09,03,08,09,21.30
2017,09,03,08,10,21.40
2017,09,03,08,11,21.40
2017,09,03,08,12,21.40
2017,09,03,08,13,21.40
2017,09,03,08,14,21.30
2017,09,03,08,15,21.30
2017,09,03,08,16,21.20
2017,09,03,08,17,21.20
2017,09,03,08,18,21.10
2017,09,03,08,19,21.10
2017,09,03,08,20,21.10
2017,09,03,08,21,21.10
2017,09,03,08,22,21.20
2017,09,03,08,23,21.20
2017,09,03,08,24,21.20
2017,09,03,08,25,21.20
2017,09,03,08,26,21.20
2017,09,03,08,27,21.20
2017,09,03,08,28,21.20
2017,09,03,08,29,21.30
2017,09,03,08,30,21.30
2017,09,03,08,31,21.30
2017,09,03,08,32,21.30
2017,09,03,08,33,21.30
2017,09,03,08,34,21.30
2017,09,03,08,35,21.30
2017,09,03,08,36,21.30
2017,09,03,08,37,21.30
2017,09,03,08,38,21.40
2017,09,03,08,39,21.40
2017,09,03,08,40,21.40
2017,09,03,08,41,21.40
2017,09,03,08,42,21.40
2017,09,03,08,43,21.40
2017,09,03,08,44,21.40
2017,09,03,08,45,21.30
2017,09,03,08,46,21.30
2017,09,03,08,47,21.30
2017,09,03,08,48,21.30
2017,09,03,08,49,21.30
2017,09,03,08,50,21.40
2017,09,03,08,51,21.40
2017,09,03,08,52,21.50
2017,09,03,08,53,21.50
2017,09,03,08,54,21.60
2017,09,03,08,55,21.60
2017,09,03,08,56,21.70
2017,09,03,08,57,21.70
2017,09,03,08,58,21.70
2017,09,03,08,59,21.80
2017,09,03,09,00,21.80
2017,09,03,09,01,21.80
2017,09,03,09,02,21.80
2017,09,03,09,03,21.80
2017,09,03,09,04,21.90
2017,09,03,09,05,21.90
2017,09,03,09,06,22.00
2017,09,03,09,07,22.00
2017,09,03,09,08,22.10
2017,09,03,09,09,22.10
2017,09,03,09,10,22.20
2017,09,03,09,11,22.30
2017,09,03,09,12,22.30
2017,09,03,09,13,22.30
2017,09,03,09,14,22.40
2017,09,03,09,15,22.40
2017,09,03,09,16,22.50
2017,09,03,09,17,22.50
2017,09,03,09,18,22.50
2017,09,03,09,19,22.50
2017,09,03,09,20,22.50
2017,09,03,09,21,22.60
2017,09,03,09,22,22.50
2017,09,03,09,23,22.60
2017,09,03,09,24,22.60
2017,09,03,09,25,22.60
2017,09,03,09,26,22.60
2017,09,03,09,27,22.70
2017,09,03,09,28,22.80
2017,09,03,09,29,22.80
2017,09,03,09,30,22.80
2017,09,03,09,31,22.90
2017,09,03,09,32,22.90
2017,09,03,09,33,22.90
2017,09,03,09,34,22.90
2017,09,03,09,35,23.00
2017,09,03,09,36,23.10
2017,09,03,09,37,23.10
2017,09,03,09,38,23.20
2017,09,03,09,39,23.20
2017,09,03,09,40,23.20
2017,09,03,09,41,23.20
2017,09,03,09,42,23.20
2017,09,03,09,43,23.20
2017,09,03,09,44,23.10
2017,09,03,09,45,23.10
2017,09,03,09,46,23.10
2017,09,03,09,47,23.20
2017,09,03,09,48,23.20
2017,09,03,09,49,23.30
2017,09,03,09,50,23.30
2017,09,03,09,51,23.40
2017,09,03,09,52,23.50
2017,09,03,09,53,23.60
2017,09,03,09,54,23.70
2017,09,03,09,55,23.80
2017,09,03,09,56,23.80
2017,09,03,09,57,23.80
2017,09,03,09,58,23.80
2017,09,03,09,59,23.90
2017,09,03,10,00,24.00
2017,09,03,10,01,24.00
2017,09,03,10,02,24.10
2017,09,03,10,03,24.10
2017,09,03,10,04,24.10
2017,09,03,10,05,24.10
2017,09,03,10,06,24.10
2017,09,03,10,07,24.20
2017,09,03,10,08,24.20
2017,09,03,10,09,24.20
2017,09,03,10,10,24.20
2017,09,03,10,11,24.30
2017,09,03,10,12,24.40
2017,09,03,10,13,24.40
2017,09,03,10,14,24.30
2017,09,03,10,15,24.30
2017,09,03,10,16,24.30
2017,09,03,10,17,24.20
2017,09,03,10,18,24.00
2017,09,03,10,19,23.90
2017,09,03,10,20,23.70
2017,09,03,10,21,23.70
2017,09,03,10,22,23.60
2017,09,03,10,23,23.50
2017,09,03,10,24,23.50
2017,09,03,10,25,23.50
2017,09,03,10,26,23.40
2017,09,03,10,27,23.40
2017,09,03,10,28,23.40
2017,09,03,10,29,23.40
2017,09,03,10,30,23.40
2017,09,03,10,31,23.40
2017,09,03,10,32,23.50
2017,09,03,10,33,23.60
2017,09,03,10,34,23.60
2017,09,03,10,35,23.60
2017,09,03,10,36,23.60
2017,09,03,10,37,23.60
2017,09,03,10,38,23.60
2017,09,03,10,39,23.60
2017,09,03,10,40,23.60
2017,09,03,10,41,23.60
2017,09,03,10,42,23.70
2017,09,03,10,43,23.70
2017,09,03,10,44,23.80
2017,09,03,10,45,23.80
2017,09,03,10,46,23.90
2017,09,03,10,47,23.90
2017,09,03,10,48,23.90
2017,09,03,10,49,23.90
2017,09,03,10,50,24.00
2017,09,03,10,51,24.10
2017,09,03,10,52,24.20
2017,09,03,10,53,24.20
2017,09,03,10,54,24.20
2017,09,03,10,55,24.30
2017,09,03,10,56,24.30
2017,09,03,10,57,24.30
2017,09,03,10,58,24.40
2017,09,03,10,59,24.40
2017,09,03,11,00,24.40
2017,09,03,11,01,24.40
2017,09,03,11,02,24.40
2017,09,03,11,03,24.40
2017,09,03,11,04,24.30
2017,09,03,11,05,24.30
2017,09,03,11,06,24.30
2017,09,03,11,07,24.40
2017,09,03,11,08,24.40
2017,09,03,11,09,24.50
2017,09,03,11,10,24.60
2017,09,03,11,11,24.60
2017,09,03,11,12,24.50
2017,09,03,11,13,24.60
2017,09,03,11,14,24.60
2017,09,03,11,15,24.60
2017,09,03,11,16,24.60
2017,09,03,11,17,24.60
2017,09,03,11,18,24.60
2017,09,03,11,19,24.70
2017,09,03,11,20,24.70
2017,09,03,11,21,24.70
2017,09,03,11,22,24.80
2017,09,03,11,23,24.70
2017,09,03,11,24,24.70
2017,09,03,11,25,24.70
2017,09,03,11,26,24.70
2017,09,03,11,27,24.80
2017,09,03,11,28,24.80
2017,09,03,11,29,24.80
2017,09,03,11,30,24.80
2017,09,03,11,31,24.70
2017,09,03,11,32,24.80
2017,09,03,11,33,24.90
2017,09,03,11,34,24.90
2017,09,03,11,35,25.00
2017,09,03,11,36,25.00
2017,09,03,11,37,24.90
2017,09,03,11,38,24.90
2017,09,03,11,39,24.90
2017,09,03,11,40,25.00
2017,09,03,11,41,24.90
2017,09,03,11,42,24.90
2017,09,03,11,43,24.90
2017,09,03,11,44,25.00
2017,09,03,11,45,25.00
2017,09,03,11,46,25.10
2017,09,03,11,47,25.20
2017,09,03,11,48,25.30
2017,09,03,11,49,25.50
2017,09,03,11,50,25.70
2017,09,03,11,51,25.80
2017,09,03,11,52,25.90
2017,09,03,11,53,25.80
2017,09,03,11,54,25.60
2017,09,03,11,55,25.60
2017,09,03,11,56,25.50
2017,09,03,11,57,25.60
2017,09,03,11,58,25.60
2017,09,03,11,59,25.50
2017,09,03,12,00,25.50
2017,09,03,12,01,25.50
2017,09,03,12,02,25.50
2017,09,03,12,03,25.60
2017,09,03,12,04,25.60
2017,09,03,12,05,25.60
2017,09,03,12,06,25.60
2017,09,03,12,07,25.60
2017,09,03,12,08,25.60
2017,09,03,12,09,25.70
2017,09,03,12,10,25.80
2017,09,03,12,11,25.90
2017,09,03,12,12,25.90
2017,09,03,12,13,26.00
2017,09,03,12,14,26.00
2017,09,03,12,15,26.20
2017,09,03,12,16,26.20
2017,09,03,12,17,26.20
2017,09,03,12,18,26.20
2017,09,03,12,19,26.10
2017,09,03,12,20,26.00
2017,09,03,12,21,26.00
2017,09,03,12,22,26.00
2017,09,03,12,23,25.90
2017,09,03,12,24,25.90
2017,09,03,12,25,25.90
2017,09,03,12,26,25.90
2017,09,03,12,27,25.80
2017,09,03,12,28,25.80
2017,09,03,12,29,25.90
2017,09,03,12,30,26.00
2017,09,03,12,31,26.00
2017,09,03,12,32,26.10
2017,09,03,12,33,26.20
2017,09,03,12,34,26.10
2017,09,03,12,35,26.00
2017,09,03,12,36,25.90
2017,09,03,12,37,25.70
2017,09,03,12,38,25.50
2017,09,03,12,39,25.30
2017,09,03,12,40,25.20
2017,09,03,12,41,25.10
2017,09,03,12,42,24.90
2017,09,03,12,43,24.80
2017,09,03,12,44,24.80
2017,09,03,12,45,24.70
2017,09,03,12,46,24.80
2017,09,03,12,47,24.90
2017,09,03,12,48,25.00
2017,09,03,12,49,25.00
2017,09,03,12,50,25.10
2017,09,03,12,51,25.20
2017,09,03,12,52,25.30
2017,09,03,12,53,25.30
2017,09,03,12,54,25.30
2017,09,03,12,55,25.40
2017,09,03,12,56,25.40
2017,09,03,12,57,25.40
2017,09,03,12,58,25.30
2017,09,03,12,59,25.40
2017,09,03,13,00,25.40
2017,09,03,13,01,25.40
2017,09,03,13,02,25.40
2017,09,03,13,03,25.40
2017,09,03,13,04,25.50
2017,09,03,13,05,25.70
2017,09,03,13,06,25.90
2017,09,03,13,07,26.00
2017,09,03,13,08,26.10
2017,09,03,13,09,26.20
2017,09,03,13,10,26.20
2017,09,03,13,11,26.10
2017,09,03,13,12,26.10
2017,09,03,13,13,26.00
2017,09,03,13,14,26.00
2017,09,03,13,15,26.10
2017,09,03,13,16,26.20
2017,09,03,13,17,26.30
2017,09,03,13,18,26.40
2017,09,03,13,19,26.50
2017,09,03,13,20,26.60
2017,09,03,13,21,26.60
2017,09,03,13,22,26.60
2017,09,03,13,23,26.60
2017,09,03,13,24,26.50
2017,09,03,13,25,26.60
2017,09,03,13,26,26.60
2017,09,03,13,27,26.70
2017,09,03,13,28,26.80
2017,09,03,13,29,26.90
2017,09,03,13,30,27.00
2017,09,03,13,31,26.90
2017,09,03,13,32,26.90
2017,09,03,13,33,26.90
2017,09,03,13,34,26.90
2017,09,03,13,35,26.90
2017,09,03,13,36,26.80
2017,09,03,13,37,26.80
2017,09,03,13,38,26.90
2017,09,03,13,39,27.00
2017,09,03,13,40,27.10
2017,09,03,13,41,27.20
2017,09,03,13,42,27.40
2017,09,03,13,43,27.40
2017,09,03,13,44,27.40
2017,09,03,13,45,27.30
2017,09,03,13,46,27.40
2017,09,03,13,47,27.40
2017,09,03,13,48,27.40
2017,09,03,13,49,27.30
2017,09,03,13,50,27.30
2017,09,03,13,51,27.30
2017,09,03,13,52,27.40
2017,09,03,13,53,27.40
2017,09,03,13,54,27.40
2017,09,03,13,55,27.30
2017,09,03,13,56,27.30
2017,09,03,13,57,27.20
2017,09,03,13,58,27.10
2017,09,03,13,59,27.20
2017,09,03,14,00,27.20
2017,09,03,14,01,27.30
2017,09,03,14,02,27.30
2017,09,03,14,03,27.30
2017,09,03,14,04,27.40
2017,09,03,14,05,27.50
2017,09,03,14,06,27.50
2017,09,03,14,07,27.40
2017,09,03,14,08,27.40
2017,09,03,14,09,27.40
2017,09,03,14,10,27.50
2017,09,03,14,11,27.60
2017,09,03,14,12,27.70
2017,09,03,14,13,27.60
2017,09,03,14,14,27.70
2017,09,03,14,15,27.60
2017,09,03,14,16,27.60
2017,09,03,14,17,27.60
2017,09,03,14,18,27.60
2017,09,03,14,19,27.60
2017,09,03,14,20,27.70
2017,09,03,14,21,27.70
2017,09,03,14,22,27.80
2017,09,03,14,23,28.00
2017,09,03,14,24,28.10
2017,09,03,14,25,28.10
2017,09,03,14,26,28.00
2017,09,03,14,27,28.00
2017,09,03,14,28,27.90
2017,09,03,14,29,27.80
2017,09,03,14,30,27.70
2017,09,03,14,31,27.70
2017,09,03,14,32,27.70
2017,09,03,14,33,27.80
2017,09,03,14,34,27.90
2017,09,03,14,35,28.00
2017,09,03,14,36,28.10
2017,09,03,14,37,28.20
2017,09,03,14,38,28.30
2017,09,03,14,39,28.30
2017,09,03,14,40,28.30
2017,09,03,14,41,28.40
2017,09,03,14,42,28.50
2017,09,03,14,43,28.60
2017,09,03,14,44,28.70
2017,09,03,14,45,28.80
2017,09,03,14,46,28.80
2017,09,03,14,47,28.80
2017,09,03,14,48,28.70
2017,09,03,14,49,28.70
2017,09,03,14,50,28.80
2017,09,03,14,51,28.80
2017,09,03,14,52,28.80
2017,09,03,14,53,28.80
2017,09,03,14,54,28.80
2017,09,03,14,55,28.80
2017,09,03,14,56,28.80
2017,09,03,14,57,28.90
2017,09,03,14,58,29.00
2017,09,03,14,59,29.10
2017,09,03,15,00,29.10
2017,09,03,15,01,29.10
2017,09,03,15,02,29.00
2017,09,03,15,03,28.90
2017,09,03,15,04,28.90
2017,09,03,15,05,28.90
2017,09,03,15,06,28.80
2017,09,03,15,07,28.70
2017,09,03,15,08,28.50
2017,09,03,15,09,28.40
2017,09,03,15,10,28.30
2017,09,03,15,11,28.30
2017,09,03,15,12,28.30
2017,09,03,15,13,28.30
2017,09,03,15,14,28.30
2017,09,03,15,15,28.30
2017,09,03,15,16,28.40
2017,09,03,15,17,28.40
2017,09,03,15,18,28.40
2017,09,03,15,19,28.40
2017,09,03,15,20,28.40
2017,09,03,15,21,28.50
2017,09,03,15,22,28.50
2017,09,03,15,23,28.60
2017,09,03,15,24,28.70
2017,09,03,15,25,28.80
2017,09,03,15,26,29.00
2017,09,03,15,27,29.20
2017,09,03,15,28,29.40
2017,09,03,15,29,29.40
2017,09,03,15,30,29.40
2017,09,03,15,31,29.50
2017,09,03,15,32,29.50
2017,09,03,15,33,29.50
2017,09,03,15,34,29.40
2017,09,03,15,35,29.30
2017,09,03,15,36,29.30
2017,09,03,15,37,29.30
2017,09,03,15,38,29.30
2017,09,03,15,39,29.40
2017,09,03,15,40,29.50
2017,09,03,15,41,29.40
2017,09,03,15,42,29.40
2017,09,03,15,43,29.50
2017,09,03,15,44,29.60
2017,09,03,15,45,29.60
2017,09,03,15,46,29.50
2017,09,03,15,47,29.50
2017,09,03,15,48,29.50
2017,09,03,15,49,29.40
2017,09,03,15,50,29.40
2017,09,03,15,51,29.40
2017,09,03,15,52,29.40
2017,09,03,15,53,29.20
2017,09,03,15,54,29.10
2017,09,03,15,55,29.10
2017,09,03,15,56,28.90
2017,09,03,15,57,28.80
2017,09,03,15,58,28.80
2017,09,03,15,59,28.70
2017,09,03,16,00,28.70
2017,09,03,16,01,28.70
2017,09,03,16,02,28.70
2017,09,03,16,03,28.70
2017,09,03,16,04,28.70
2017,09,03,16,05,28.70
2017,09,03,16,06,28.60
2017,09,03,16,07,28.60
2017,09,03,16,08,28.60
2017,09,03,16,09,28.60
2017,09,03,16,10,28.50
2017,09,03,16,11,28.50
2017,09,03,16,12,28.50
2017,09,03,16,13,28.60
2017,09,03,16,14,28.70
2017,09,03,16,15,28.60
2017,09,03,16,16,28.60
2017,09,03,16,17,28.60
2017,09,03,16,18,28.50
2017,09,03,16,19,28.50
2017,09,03,16,20,28.50
2017,09,03,16,21,28.50
2017,09,03,16,22,28.60
2017,09,03,16,23,28.70
2017,09,03,16,24,28.80
2017,09,03,16,25,28.90
2017,09,03,16,26,29.10
2017,09,03,16,27,29.20
2017,09,03,16,28,29.30
2017,09,03,16,29,29.40
2017,09,03,16,30,29.40
2017,09,03,16,31,29.40
2017,09,03,16,32,29.40
2017,09,03,16,33,29.40
2017,09,03,16,34,29.40
2017,09,03,16,35,29.40
2017,09,03,16,36,29.40
2017,09,03,16,37,29.40
2017,09,03,16,38,29.40
2017,09,03,16,39,29.30
2017,09,03,16,40,29.30
2017,09,03,16,41,29.30
2017,09,03,16,42,29.30
2017,09,03,16,43,29.30
2017,09,03,16,44,29.40
2017,09,03,16,45,29.40
2017,09,03,16,46,29.40
2017,09,03,16,47,29.40
2017,09,03,16,48,29.50
2017,09,03,16,49,29.60
2017,09,03,16,50,29.60
2017,09,03,16,51,29.70
2017,09,03,16,52,29.70
2017,09,03,16,53,29.80
2017,09,03,16,54,29.80
2017,09,03,16,55,29.80
2017,09,03,16,56,29.80
2017,09,03,16,57,29.80
2017,09,03,16,58,29.90
2017,09,03,16,59,29.90
2017,09,03,17,00,30.00
2017,09,03,17,01,30.10
2017,09,03,17,02,30.20
2017,09,03,17,03,30.20
2017,09,03,17,04,30.20
2017,09,03,17,05,30.20
2017,09,03,17,06,30.20
2017,09,03,17,07,30.10
2017,09,03,17,08,30.10
2017,09,03,17,09,30.00
2017,09,03,17,10,30.00
2017,09,03,17,11,30.10
2017,09,03,17,12,30.10
2017,09,03,17,13,30.10
2017,09,03,17,14,30.00
2017,09,03,17,15,29.90
2017,09,03,17,16,29.90
2017,09,03,17,17,29.80
2017,09,03,17,18,29.90
2017,09,03,17,19,29.90